Time,TemperatureF,DewpointF,PressureIn,WindDirection,WindDirectionDegrees,WindSpeedMPH,WindSpeedGustMPH,Humidity,HourlyPrecipIn,Conditions,Clouds,dailyrainin,SoftwareType,DateUTC
2013-02-02 00:02:00,20.0,9.0,-100.00,South,170,5.0,13.0,62,-99.99,,,-99.99,,2013-02-02 06:02:00,
2013-02-02 00:12:00,20.0,9.0,-100.00,SSW,195,5.0,14.0,63,-99.99,,,-99.99,,2013-02-02 06:12:00,
2013-02-02 00:22:00,19.0,10.0,-100.00,SW,225,4.0,10.0,65,-99.99,,,-99.99,,2013-02-02 06:22:00,
2013-02-02 00:32:00,19.0,10.0,-100.00,SW,225,4.0,10.0,65,-99.99,,,-99.99,,2013-02-02 06:32:00,
2013-02-02 00:41:00,19.0,10.0,-100.00,SW,215,4.0,10.0,67,-99.99,,,-99.99,,2013-02-02 06:41:00,
2013-02-02 00:52:00,19.0,11.0,-100.00,SSW,200,4.0,8.0,70,-99.99,,,-99.99,,2013-02-02 06:52:00,
2013-02-02 01:02:00,19.0,11.0,-100.00,SSW,200,4.0,8.0,70,-99.99,,,-99.99,,2013-02-02 07:02:00,
2013-02-02 01:12:00,19.0,12.0,-100.00,SSW,205,5.0,9.0,72,-99.99,,,-99.99,,2013-02-02 07:12:00,
2013-02-02 01:21:00,20.0,13.0,-100.00,SW,215,5.0,9.0,75,-99.99,,,-99.99,,2013-02-02 07:21:00,
2013-02-02 01:31:00,20.0,13.0,-100.00,SW,215,5.0,9.0,75,-99.99,,,-99.99,,2013-02-02 07:31:00,
2013-02-02 01:42:00,20.0,14.0,-100.00,SW,225,4.0,9.0,77,-99.99,,,-99.99,,2013-02-02 07:42:00,
2013-02-02 01:52:00,20.0,15.0,-100.00,SSW,205,7.0,14.0,79,-99.99,,,-99.99,,2013-02-02 07:52:00,
2013-02-02 02:01:00,20.0,15.0,-100.00,SSW,205,7.0,14.0,79,-99.99,,,-99.99,,2013-02-02 08:01:00,
2013-02-02 02:11:00,20.0,15.0,-100.00,SSW,210,5.0,11.0,80,-99.99,,,-99.99,,2013-02-02 08:11:00,
2013-02-02 02:21:00,21.0,16.0,-100.00,SSW,205,6.0,11.0,82,-99.99,,,-99.99,,2013-02-02 08:21:00,
2013-02-02 02:31:00,21.0,16.0,-100.00,SSW,205,6.0,11.0,82,-99.99,,,-99.99,,2013-02-02 08:31:00,
2013-02-02 02:41:00,21.0,16.0,-100.00,SSW,205,6.0,11.0,82,-99.99,,,-99.99,,2013-02-02 08:41:00,
2013-02-02 02:53:00,21.0,17.0,-100.00,South,185,5.0,11.0,84,-99.99,,,-99.99,,2013-02-02 08:53:00,
2013-02-02 03:01:00,21.0,17.0,-100.00,South,185,5.0,11.0,84,-99.99,,,-99.99,,2013-02-02 09:01:00,
2013-02-02 03:11:00,21.0,17.0,-100.00,SW,215,3.0,9.0,84,-99.99,,,-99.99,,2013-02-02 09:11:00,
2013-02-02 03:22:00,22.0,18.0,-100.00,SW,215,6.0,14.0,85,-99.99,,,-99.99,,2013-02-02 09:22:00,
2013-02-02 03:31:00,22.0,18.0,-100.00,SW,215,6.0,14.0,85,-99.99,,,-99.99,,2013-02-02 09:31:00,
2013-02-02 03:42:00,22.0,19.0,-100.00,SSW,210,4.0,13.0,85,-99.99,,,-99.99,,2013-02-02 09:42:00,
2013-02-02 03:52:00,22.0,19.0,-100.00,SSW,210,4.0,11.0,85,-99.99,,,-99.99,,2013-02-02 09:52:00,
2013-02-02 04:01:00,22.0,19.0,-100.00,SSW,210,4.0,11.0,85,-99.99,,,-99.99,,2013-02-02 10:01:00,
2013-02-02 04:11:00,23.0,19.0,-100.00,SW,230,5.0,11.0,85,-99.99,,,-99.99,,2013-02-02 10:11:00,
2013-02-02 04:21:00,23.0,19.0,-100.00,SW,230,5.0,13.0,85,-99.99,,,-99.99,,2013-02-02 10:21:00,
2013-02-02 04:32:00,23.0,19.0,-100.00,SW,230,5.0,13.0,85,-99.99,,,-99.99,,2013-02-02 10:32:00,
2013-02-02 04:42:00,24.0,20.0,-100.00,SW,230,2.0,8.0,85,-99.99,,,-99.99,,2013-02-02 10:42:00,
2013-02-02 04:52:00,24.0,20.0,-100.00,ESE,105,1.0,5.0,85,-99.99,,,-99.99,,2013-02-02 10:52:00,
2013-02-02 05:01:00,24.0,20.0,-100.00,ESE,105,1.0,5.0,85,-99.99,,,-99.99,,2013-02-02 11:01:00,
2013-02-02 05:11:00,24.0,20.0,-100.00,SW,220,4.0,9.0,85,-99.99,,,-99.99,,2013-02-02 11:11:00,
2013-02-02 05:21:00,24.0,20.0,-100.00,WSW,255,4.0,9.0,85,-99.99,,,-99.99,,2013-02-02 11:21:00,
2013-02-02 05:32:00,24.0,20.0,-100.00,WSW,255,4.0,9.0,85,-99.99,,,-99.99,,2013-02-02 11:32:00,
2013-02-02 05:42:00,24.0,20.0,-100.00,SW,235,4.0,9.0,86,-99.99,,,-99.99,,2013-02-02 11:42:00,
2013-02-02 05:52:00,24.0,20.0,-100.00,SW,235,4.0,9.0,86,-99.99,,,-99.99,,2013-02-02 11:52:00,
2013-02-02 06:02:00,24.0,20.0,-100.00,SW,235,4.0,9.0,86,-99.99,,,-99.99,,2013-02-02 12:02:00,
2013-02-02 06:11:00,24.0,20.0,-100.00,WSW,250,6.0,14.0,86,-99.99,,,-99.99,,2013-02-02 12:11:00,
2013-02-02 06:22:00,24.0,20.0,-100.00,SW,235,6.0,10.0,86,-99.99,,,-99.99,,2013-02-02 12:22:00,
2013-02-02 06:32:00,24.0,20.0,-100.00,SW,235,6.0,10.0,86,-99.99,,,-99.99,,2013-02-02 12:32:00,
2013-02-02 06:42:00,24.0,20.0,-100.00,SSW,210,3.0,8.0,85,-99.99,,,-99.99,,2013-02-02 12:42:00,
2013-02-02 06:52:00,24.0,20.0,-100.00,SW,230,5.0,9.0,85,-99.99,,,-99.99,,2013-02-02 12:52:00,
2013-02-02 07:03:00,24.0,20.0,-100.00,SW,230,5.0,9.0,85,-99.99,,,-99.99,,2013-02-02 13:03:00,
2013-02-02 07:11:00,24.0,20.0,-100.00,SW,215,3.0,9.0,85,-99.99,,,-99.99,,2013-02-02 13:11:00,
2013-02-02 07:21:00,24.0,20.0,-100.00,SSW,210,4.0,7.0,85,-99.99,,,-99.99,,2013-02-02 13:21:00,
2013-02-02 07:32:00,24.0,20.0,-100.00,SW,230,4.0,8.0,85,-99.99,,,-99.99,,2013-02-02 13:32:00,
2013-02-02 07:42:00,24.0,20.0,-100.00,SW,230,4.0,8.0,85,-99.99,,,-99.99,,2013-02-02 13:42:00,
2013-02-02 07:52:00,24.0,21.0,-100.00,WSW,255,3.0,7.0,85,-99.99,,,-99.99,,2013-02-02 13:52:00,
2013-02-02 08:02:00,24.0,21.0,-100.00,WSW,255,3.0,7.0,85,-99.99,,,-99.99,,2013-02-02 14:02:00,
2013-02-02 08:11:00,25.0,21.0,-100.00,SW,235,4.0,9.0,85,-99.99,,,-99.99,,2013-02-02 14:11:00,
2013-02-02 08:22:00,25.0,21.0,-100.00,West,260,4.0,11.0,85,-99.99,,,-99.99,,2013-02-02 14:22:00,
2013-02-02 08:32:00,25.0,21.0,-100.00,West,260,4.0,11.0,85,-99.99,,,-99.99,,2013-02-02 14:32:00,
2013-02-02 08:42:00,25.0,21.0,-100.00,West,265,4.0,10.0,85,-99.99,,,-99.99,,2013-02-02 14:42:00,
2013-02-02 08:52:00,26.0,22.0,-100.00,West,260,2.0,9.0,85,-99.99,,,-99.99,,2013-02-02 14:52:00,
2013-02-02 09:03:00,26.0,22.0,-100.00,West,260,2.0,9.0,85,-99.99,,,-99.99,,2013-02-02 15:03:00,
2013-02-02 09:12:00,26.0,22.0,-100.00,WSW,255,4.0,10.0,84,-99.99,,,-99.99,,2013-02-02 15:12:00,
2013-02-02 09:22:00,26.0,22.0,-100.00,West,275,4.0,11.0,84,-99.99,,,-99.99,,2013-02-02 15:22:00,
2013-02-02 09:32:00,26.0,22.0,-100.00,West,275,4.0,11.0,84,-99.99,,,-99.99,,2013-02-02 15:32:00,
2013-02-02 09:42:00,27.0,22.0,-100.00,West,260,6.0,11.0,84,-99.99,,,-99.99,,2013-02-02 15:42:00,
2013-02-02 09:52:00,27.0,22.0,-100.00,West,265,6.0,11.0,83,-99.99,,,-99.99,,2013-02-02 15:52:00,
2013-02-02 10:03:00,27.0,22.0,-100.00,West,265,6.0,11.0,83,-99.99,,,-99.99,,2013-02-02 16:03:00,
2013-02-02 10:11:00,27.0,22.0,-100.00,NW,310,1.0,12.0,82,-99.99,,,-99.99,,2013-02-02 16:11:00,
2013-02-02 10:22:00,27.0,22.0,-100.00,WNW,285,6.0,14.0,81,-99.99,,,-99.99,,2013-02-02 16:22:00,
2013-02-02 10:32:00,27.0,22.0,-100.00,WNW,285,6.0,14.0,81,-99.99,,,-99.99,,2013-02-02 16:32:00,
2013-02-02 10:42:00,27.0,21.0,-100.00,NNW,330,8.0,15.0,80,-99.99,,,-99.99,,2013-02-02 16:42:00,
2013-02-02 10:52:00,27.0,22.0,-100.00,NNW,345,6.0,15.0,80,-99.99,,,-99.99,,2013-02-02 16:52:00,
2013-02-02 11:02:00,27.0,22.0,-100.00,NNW,345,6.0,15.0,80,-99.99,,,-99.99,,2013-02-02 17:02:00,
2013-02-02 11:11:00,26.0,21.0,-100.00,NW,315,13.0,21.0,79,-99.99,,,-99.99,,2013-02-02 17:11:00,
2013-02-02 11:22:00,23.0,17.0,-100.00,North,0,10.0,26.0,79,-99.99,,,-99.99,,2013-02-02 17:22:00,
2013-02-02 11:32:00,23.0,17.0,-100.00,North,0,10.0,26.0,79,-99.99,,,-99.99,,2013-02-02 17:32:00,
2013-02-02 11:42:00,22.0,17.0,-100.00,North,5,14.0,21.0,79,-99.99,,,-99.99,,2013-02-02 17:42:00,
2013-02-02 11:52:00,20.0,15.0,-100.00,NNE,20,13.0,24.0,78,-99.99,,,-99.99,,2013-02-02 17:52:00,
2013-02-02 12:02:00,20.0,15.0,-100.00,NNE,20,13.0,24.0,78,-99.99,,,-99.99,,2013-02-02 18:02:00,
2013-02-02 12:12:00,19.0,13.0,-100.00,North,0,6.0,20.0,78,-99.99,,,-99.99,,2013-02-02 18:12:00,
2013-02-02 12:22:00,18.0,12.0,-100.00,NNE,15,5.0,18.0,77,-99.99,,,-99.99,,2013-02-02 18:22:00,
2013-02-02 12:32:00,18.0,12.0,-100.00,NNE,15,5.0,18.0,77,-99.99,,,-99.99,,2013-02-02 18:32:00,
2013-02-02 12:42:00,18.0,12.0,-100.00,North,5,8.0,14.0,76,-99.99,,,-99.99,,2013-02-02 18:42:00,
2013-02-02 12:52:00,18.0,12.0,-100.00,NNW,345,6.0,11.0,75,-99.99,,,-99.99,,2013-02-02 18:52:00,
2013-02-02 13:02:00,18.0,12.0,-100.00,NNW,345,6.0,11.0,75,-99.99,,,-99.99,,2013-02-02 19:02:00,
2013-02-02 13:12:00,18.0,11.0,-100.00,NNW,330,8.0,14.0,73,-99.99,,,-99.99,,2013-02-02 19:12:00,
2013-02-02 13:21:00,18.0,10.0,-100.00,NNW,330,4.0,14.0,72,-99.99,,,-99.99,,2013-02-02 19:21:00,
2013-02-02 13:32:00,18.0,10.0,-100.00,NNW,330,4.0,14.0,72,-99.99,,,-99.99,,2013-02-02 19:32:00,
2013-02-02 13:42:00,18.0,10.0,-100.00,NNW,335,5.0,14.0,72,-99.99,,,-99.99,,2013-02-02 19:42:00,
2013-02-02 13:52:00,18.0,10.0,-100.00,NNW,340,10.0,15.0,71,-99.99,,,-99.99,,2013-02-02 19:52:00,
2013-02-02 14:01:00,18.0,10.0,-100.00,NNW,340,10.0,15.0,71,-99.99,,,-99.99,,2013-02-02 20:01:00,
2013-02-02 14:11:00,18.0,10.0,-100.00,NNW,330,7.0,15.0,71,-99.99,,,-99.99,,2013-02-02 20:11:00,
2013-02-02 14:21:00,19.0,11.0,-100.00,NW,320,7.0,13.0,70,-99.99,,,-99.99,,2013-02-02 20:21:00,
2013-02-02 14:32:00,19.0,11.0,-100.00,NW,320,7.0,13.0,70,-99.99,,,-99.99,,2013-02-02 20:32:00,
2013-02-02 14:42:00,18.0,10.0,-100.00,North,350,6.0,16.0,69,-99.99,,,-99.99,,2013-02-02 20:42:00,
2013-02-02 14:52:00,19.0,10.0,-100.00,NNW,335,5.0,13.0,69,-99.99,,,-99.99,,2013-02-02 20:52:00,
2013-02-02 15:02:00,19.0,10.0,-100.00,NNW,335,5.0,13.0,69,-99.99,,,-99.99,,2013-02-02 21:02:00,
2013-02-02 15:11:00,20.0,11.0,-100.00,NW,325,7.0,12.0,69,-99.99,,,-99.99,,2013-02-02 21:11:00,
2013-02-02 15:21:00,19.0,10.0,-100.00,NNW,335,7.0,16.0,68,-99.99,,,-99.99,,2013-02-02 21:21:00,
2013-02-02 15:32:00,19.0,10.0,-100.00,NW,325,6.0,14.0,67,-99.99,,,-99.99,,2013-02-02 21:32:00,
2013-02-02 15:42:00,19.0,10.0,-100.00,NW,325,6.0,14.0,67,-99.99,,,-99.99,,2013-02-02 21:42:00,
2013-02-02 15:52:00,18.0,8.0,-100.00,NW,310,8.0,12.0,66,-99.99,,,-99.99,,2013-02-02 21:52:00,
2013-02-02 16:02:00,18.0,8.0,-100.00,NW,310,8.0,12.0,66,-99.99,,,-99.99,,2013-02-02 22:02:00,
2013-02-02 16:21:00,17.0,7.0,-100.00,NW,315,7.0,19.0,65,-99.99,,,-99.99,,2013-02-02 22:21:00,
2013-02-02 16:32:00,17.0,7.0,-100.00,NW,315,7.0,19.0,65,-99.99,,,-99.99,,2013-02-02 22:32:00,
2013-02-02 16:42:00,17.0,7.0,-100.00,NNW,335,5.0,12.0,64,-99.99,,,-99.99,,2013-02-02 22:42:00,
2013-02-02 16:52:00,16.0,6.0,-100.00,NNW,335,6.0,13.0,63,-99.99,,,-99.99,,2013-02-02 22:52:00,
2013-02-02 17:02:00,16.0,6.0,-100.00,NNW,335,6.0,13.0,63,-99.99,,,-99.99,,2013-02-02 23:02:00,
2013-02-02 17:11:00,16.0,6.0,-100.00,NW,325,5.0,12.0,63,-99.99,,,-99.99,,2013-02-02 23:11:00,
2013-02-02 17:21:00,16.0,6.0,-100.00,NNW,330,5.0,11.0,64,-99.99,,,-99.99,,2013-02-02 23:21:00,
2013-02-02 17:32:00,16.0,6.0,-100.00,NNW,330,5.0,11.0,64,-99.99,,,-99.99,,2013-02-02 23:32:00,
2013-02-02 17:42:00,15.0,5.0,-100.00,North,355,4.0,10.0,64,-99.99,,,-99.99,,2013-02-02 23:42:00,
2013-02-02 17:52:00,15.0,6.0,-100.00,NNW,335,7.0,11.0,65,-99.99,,,-99.99,,2013-02-02 23:52:00,
2013-02-02 18:02:00,15.0,6.0,-100.00,NNW,335,7.0,11.0,65,-99.99,,,-99.99,,2013-02-03 00:02:00,
2013-02-02 18:11:00,15.0,6.0,-100.00,NNW,340,7.0,12.0,65,-99.99,,,-99.99,,2013-02-03 00:11:00,
2013-02-02 18:22:00,15.0,6.0,-100.00,NNW,335,5.0,9.0,65,-99.99,,,-99.99,,2013-02-03 00:22:00,
2013-02-02 18:32:00,15.0,6.0,-100.00,NNW,335,5.0,9.0,65,-99.99,,,-99.99,,2013-02-03 00:32:00,
2013-02-02 18:42:00,15.0,6.0,-100.00,NW,325,4.0,6.0,66,-99.99,,,-99.99,,2013-02-03 00:42:00,
2013-02-02 18:52:00,15.0,6.0,-100.00,North,0,4.0,6.0,66,-99.99,,,-99.99,,2013-02-03 00:52:00,
2013-02-02 19:02:00,15.0,6.0,-100.00,North,0,4.0,6.0,66,-99.99,,,-99.99,,2013-02-03 01:02:00,
2013-02-02 19:11:00,15.0,6.0,-100.00,North,0,2.0,6.0,66,-99.99,,,-99.99,,2013-02-03 01:11:00,
2013-02-02 19:21:00,15.0,6.0,-100.00,North,10,4.0,7.0,67,-99.99,,,-99.99,,2013-02-03 01:21:00,
2013-02-02 19:32:00,15.0,6.0,-100.00,North,10,4.0,7.0,67,-99.99,,,-99.99,,2013-02-03 01:32:00,
2013-02-02 19:42:00,14.0,5.0,-100.00,North,10,2.0,4.0,67,-99.99,,,-99.99,,2013-02-03 01:42:00,
2013-02-02 19:52:00,15.0,6.0,-100.00,North,5,4.0,5.0,67,-99.99,,,-99.99,,2013-02-03 01:52:00,
2013-02-02 20:01:00,15.0,6.0,-100.00,North,5,4.0,5.0,67,-99.99,,,-99.99,,2013-02-03 02:01:00,
2013-02-02 20:11:00,14.0,6.0,-100.00,NNW,335,1.0,5.0,68,-99.99,,,-99.99,,2013-02-03 02:11:00,
2013-02-02 20:21:00,14.0,5.0,-100.00,NNE,15,0.0,2.0,68,-99.99,,,-99.99,,2013-02-03 02:21:00,
2013-02-02 20:32:00,14.0,5.0,-100.00,NNE,15,0.0,2.0,68,-99.99,,,-99.99,,2013-02-03 02:32:00,
2013-02-02 20:42:00,14.0,5.0,-100.00,North,10,2.0,4.0,68,-99.99,,,-99.99,,2013-02-03 02:42:00,
2013-02-02 20:52:00,14.0,5.0,-100.00,NNE,15,1.0,4.0,68,-99.99,,,-99.99,,2013-02-03 02:52:00,
2013-02-02 21:02:00,14.0,5.0,-100.00,NNE,15,1.0,4.0,68,-99.99,,,-99.99,,2013-02-03 03:02:00,
2013-02-02 21:11:00,14.0,5.0,-100.00,NE,35,1.0,4.0,69,-99.99,,,-99.99,,2013-02-03 03:11:00,
2013-02-02 21:21:00,13.0,5.0,-100.00,NE,55,2.0,4.0,69,-99.99,,,-99.99,,2013-02-03 03:21:00,
2013-02-02 21:32:00,13.0,5.0,-100.00,NE,55,2.0,4.0,69,-99.99,,,-99.99,,2013-02-03 03:32:00,
2013-02-02 21:42:00,13.0,5.0,-100.00,East,100,1.0,4.0,69,-99.99,,,-99.99,,2013-02-03 03:42:00,
2013-02-02 21:52:00,12.0,4.0,-100.00,NE,50,1.0,4.0,70,-99.99,,,-99.99,,2013-02-03 03:52:00,
2013-02-02 22:01:00,12.0,4.0,-100.00,NE,50,1.0,4.0,70,-99.99,,,-99.99,,2013-02-03 04:01:00,
2013-02-02 22:11:00,12.0,4.0,-100.00,East,85,1.0,2.0,70,-99.99,,,-99.99,,2013-02-03 04:11:00,
2013-02-02 22:21:00,11.0,4.0,-100.00,East,85,3.0,4.0,71,-99.99,,,-99.99,,2013-02-03 04:21:00,
2013-02-02 22:32:00,11.0,4.0,-100.00,East,85,3.0,4.0,71,-99.99,,,-99.99,,2013-02-03 04:32:00,
2013-02-02 22:42:00,11.0,3.0,-100.00,East,100,4.0,6.0,71,-99.99,,,-99.99,,2013-02-03 04:42:00,
2013-02-02 22:52:00,11.0,4.0,-100.00,East,80,0.0,0.0,71,-99.99,,,-99.99,,2013-02-03 04:52:00,
2013-02-02 23:03:00,11.0,4.0,-100.00,East,80,0.0,0.0,71,-99.99,,,-99.99,,2013-02-03 05:03:00,
2013-02-02 23:12:00,12.0,4.0,-100.00,NE,45,0.0,0.0,72,-99.99,,,-99.99,,2013-02-03 05:12:00,
2013-02-02 23:22:00,12.0,5.0,-100.00,SSE,165,1.0,3.0,73,-99.99,,,-99.99,,2013-02-03 05:22:00,
2013-02-02 23:32:00,12.0,5.0,-100.00,SSE,165,1.0,3.0,73,-99.99,,,-99.99,,2013-02-03 05:32:00,
2013-02-02 23:42:00,12.0,5.0,-100.00,ESE,110,0.0,2.0,73,-99.99,,,-99.99,,2013-02-03 05:42:00,
2013-02-02 23:52:00,12.0,5.0,-100.00,East,95,0.0,1.0,73,-99.99,,,-99.99,,2013-02-03 05:52:00,